Shreveport, LA

5:43 AM CDT on May 26, 2018 (GMT -0500)
Shreveport Regional

Weather History for KSHV - June, 2013

Change the Weather History Date:

Sunday, June 16, 2013

  Actual Average Record
Temperature  
Mean Temperature 85 °F 80 °F  
Max Temperature 93 °F 90 °F 103 °F (1875)
Min Temperature 77 °F 70 °F 56 °F (1989)
Degree Days  
Heating Degree Days 0 0  
Month to date heating degree days 0 0  
Since 1 June heating degree days 0 0  
Since 1 July heating degree days 2081 2226  
Cooling Degree Days 20 15  
Month to date cooling degree days 244 218  
Year to date cooling degree days 631 616  
Since 1 June cooling degree days 244 218  
Growing Degree Days 35 (Base 50)    
Moisture  
Dew Point 73 °F    
Average Humidity 69    
Maximum Humidity 85    
Minimum Humidity 52    
Precipitation  
Precipitation 0.00 in 0.20 in 2.05 in (1873)
Month to date precipitation 4.57 2.90  
Year to date precipitation 21.42 25.11  
Snow  
Snow 0.00 in - - ()
Month to date snowfall 0.0  
Since 1 June snowfall 0.0  
Since 1 July snowfall 0.1  
Snow Depth 0.00 in    
Sea Level Pressure  
Sea Level Pressure 29.96 in    
Wind  
Wind Speed 6 mph (SSE)    
Max Wind Speed 17 mph    
Max Gust Speed 24 mph    
Visibility 10 miles    
Events      
T = Trace of Precipitation, MM = Missing Value Source: NWS Daily Summary

Daily Weather History Graph

Daily Weather History Graph

Search for Another Location

Airport or City:

Astronomy

Jun. 16, 2013 Rise Set
Actual Time 6:07 AM CDT 8:24 PM CDT
Civil Twilight 5:39 AM CDT 8:52 PM CDT
Nautical Twilight 5:04 AM CDT 9:27 PM CDT
Astronomical Twilight 4:26 AM CDT 10:05 PM CDT
Moon 1:20 PM CDT (6/16) 12:51 AM CDT (6/16)
Length of Visible Light 15h 13m
Length of Day
14h 16m
Waxing Crescent, 50% of the Moon is Illuminated
Jun 16
Waxing Crescent
Jun 16
First Quarter
Jun 23
Full
Jun 29
Last Quarter
Jul 8
New

Hourly Weather History & Observations

Time (CDT) Temp. Heat Index Dew Point Humidity Pressure Visibility Wind Dir Wind Speed Gust Speed Precip Events Conditions
12:56 AM 79.0 °F - 70.0 °F 74% 29.94 in 10.0 mi SE 4.6 mph - N/A   Overcast
1:56 AM 79.0 °F - 70.0 °F 74% 29.94 in 10.0 mi SE 3.5 mph - N/A   Overcast
2:56 AM 79.0 °F - 70.0 °F 74% 29.92 in 10.0 mi SE 3.5 mph - N/A   Overcast
3:56 AM 78.1 °F - 70.0 °F 76% 29.92 in 10.0 mi SSE 3.5 mph - N/A   Overcast
4:56 AM 77.0 °F - 71.1 °F 82% 29.94 in 10.0 mi SSE 4.6 mph - N/A   Overcast
5:56 AM 77.0 °F - 72.0 °F 84% 29.96 in 9.0 mi South 3.5 mph - N/A   Overcast
6:56 AM 78.1 °F - 73.0 °F 84% 29.98 in 7.0 mi Calm Calm - N/A   Mostly Cloudy
7:56 AM 79.0 °F - 73.9 °F 84% 30.00 in 8.0 mi SW 5.8 mph - N/A   Overcast
8:56 AM 81.0 °F 86.2 °F 73.9 °F 79% 30.00 in 10.0 mi SW 8.1 mph - N/A   Mostly Cloudy
9:56 AM 84.9 °F 91.4 °F 73.0 °F 67% 30.01 in 10.0 mi WSW 10.4 mph - N/A   Mostly Cloudy
10:56 AM 88.0 °F 96.5 °F 73.9 °F 63% 29.99 in 10.0 mi SW 9.2 mph - N/A   Mostly Cloudy
11:56 AM 90.0 °F 100.2 °F 75.0 °F 61% 29.98 in 10.0 mi West 8.1 mph - N/A   Mostly Cloudy
12:56 PM 90.0 °F 100.2 °F 75.0 °F 61% 29.98 in 10.0 mi SSW 6.9 mph - N/A   Mostly Cloudy
1:56 PM 91.0 °F 99.3 °F 73.0 °F 55% 29.98 in 10.0 mi South 5.8 mph - N/A   Mostly Cloudy
2:31 PM 84.2 °F 90.9 °F 73.4 °F 70% 30.00 in 10.0 mi ENE 12.7 mph - N/A   Mostly Cloudy
2:56 PM 88.0 °F 96.5 °F 73.9 °F 63% 29.99 in 10.0 mi East 9.2 mph - N/A   Mostly Cloudy
3:56 PM 89.1 °F 98.0 °F 73.9 °F 61% 29.95 in 10.0 mi ESE 5.8 mph - N/A   Mostly Cloudy
4:56 PM 91.0 °F 99.3 °F 73.0 °F 55% 29.93 in 10.0 mi SSW 6.9 mph - N/A   Mostly Cloudy
5:56 PM 91.0 °F 98.2 °F 72.0 °F 53% 29.91 in 10.0 mi South 9.2 mph - N/A   Scattered Clouds
6:56 PM 90.0 °F 96.4 °F 71.1 °F 54% 29.91 in 10.0 mi South 8.1 mph - N/A   Scattered Clouds
7:56 PM 86.0 °F 93.0 °F 73.0 °F 65% 29.91 in 10.0 mi SSE 4.6 mph - N/A   Scattered Clouds
8:56 PM 82.9 °F 89.4 °F 73.9 °F 74% 29.94 in 10.0 mi SE 4.6 mph - N/A   Scattered Clouds
9:56 PM 82.0 °F 88.6 °F 75.0 °F 79% 29.94 in 10.0 mi SE 5.8 mph - N/A   Scattered Clouds
10:56 PM 80.1 °F 84.5 °F 73.9 °F 81% 29.96 in 10.0 mi Calm Calm - N/A   Scattered Clouds
11:56 PM 79.0 °F - 73.9 °F 84% 29.96 in 10.0 mi SE 3.5 mph - N/A   Partly Cloudy